Regional Weather Roundup
Issued by NWS

Home | Current Version | Previous Version | Graphics & Text | Print | Product List | Glossary On
Versions: 1 2 3 4 5 6 7 8 9 10 11 12 13 14 15 16 17 18 19 20 21 22 23 24 25 26 27 28 29 30 31 32 33 34 35 36 37 38 39 40 41 42 43 44 45 46 47 48 49 50
903
ASUS44 KLIX 020705
RWRLA
LOUISIANA WEATHER ROUNDUP
NATIONAL WEATHER SERVICE NEW ORLEANS LA
200 AM CDT TUE SEP 02 2014

NOTE: "FAIR" INDICATES FEW OR NO CLOUDS BELOW 12,000 FEET WITH NO
      SIGNIFICANT WEATHER AND/OR OBSTRUCTIONS TO VISIBILITY.
      SKY/WX - SKY CONDITION AND SIGNIFICANT WEATHER.
      TMP - AIR TEMPERATURE.    DP   - DEWPOINT TEMPERATURE.
      RH  - RELATIVE HUMIDITY.  PRES - PRESSURE.
      HX  - HEAT INDEX.         WCI  - WIND CHILL INDEX.

*  THESE STATIONS ARE NOT NWS OR FAA STATIONS AND ARE NOT UNDER
   NWS QUALITY CONTROL.

LAZ040-048-061>063-065-066-069-020800-
SOUTHEAST LOUISIANA

CITY           SKY/WX    TMP DP  RH WIND       PRES   REMARKS
N.O. AUDUBON     N/A     82  76  81 MISG        N/A
N.O. INTL ARPT PTCLDY    80  75  84 S6        30.00F
N.O. LAKEFRONT PTCLDY    79  76  90 SE5       30.01F
N.O. DOWNTOWN* FAIR      81  73  78 S5        30.01S
SLIDELL        PTCLDY    76  74  93 CALM      30.00F
BATON ROUGE    PTCLDY    76  74  93 NE3       30.00S
BOOTHVILLE     PTCLDY    82  79  90 SE5       30.01F
BELLE CHASSE   MOCLDY    78  74  87 CALM      30.00F
BOGALUSA*        N/A     78  74  86 CALM      30.04R
GALLIANO*      NOT AVBL
NEW ROADS*     FAIR      77  76  96 SE3       30.00S
GONZALES*        N/A     76  76 100 CALM      30.00S
HAMMOND*       PTCLDY    77  73  88 CALM      30.03R
HOUMA*         PTCLDY    79  74  86 CALM      29.99F HAZE
PORT FOURCHON* PTSUNNY   84  77  79 S9        30.02S

$$

LAZ041-044-053-054-020800-
SOUTHWEST LOUISIANA

CITY           SKY/WX    TMP DP  RH WIND       PRES   REMARKS
LAKE CHARLES   CLEAR     80  77  90 S5        29.95F
LAFAYETTE      CLEAR     78  77  96 SE3       29.97F
PATTERSON        N/A     79  75  89 SE5       30.01S
SALT POINT       N/A     86  78  77 MISG      29.98F HX  98
NEW IBERIA     CLEAR     78  75  90 E3        29.99S
CHENAULT AIRPK CLEAR     78  75  92 CALM      29.97S

$$

LAZ027-028-020800-
CENTRAL LOUISIANA

CITY           SKY/WX    TMP DP  RH WIND       PRES   REMARKS
FORT POLK      CLOUDY    76  75  97 SE3       29.99R
ALEXANDRIA INT CLEAR     77  74  90 SE5       29.97S
ALEXANDRIA     CLEAR     77  74  90 CALM      29.98F

$$

LAZ001-002-020800-
NORTHWEST LOUISIANA

CITY           SKY/WX    TMP DP  RH WIND       PRES   REMARKS
SHREVEPORT     CLEAR     78  75  90 S6        29.96S
BARKSDALE AFB  CLEAR     78  75  91 S8        29.97S
DTN SHREVEPORT CLEAR     79  75  87 S6        29.97R

$$

LAZ014-016-020800-
NORTHEAST LOUISIANA

CITY           SKY/WX    TMP DP  RH WIND       PRES   REMARKS
MONROE         PTCLDY    76  73  91 CALM      30.01R
TALLULAH       PTCLDY    77  73  87 S7        30.01R

$$




USA.gov is the U.S. government's official web portal to all federal, state and local government web resources and services.